Location: Saint-Palais-sur-Mer
(45.6429°N, 1.0859°W)
Time: 21:42:10
(UTC+02:00)

BlueWalker 3 - Visible Passes

Search period start: 30 April 2025 00:00
Search period end: 10 May 2025 00:00
Orbit: 463 x 473 km, 53.2° (Epoch: 29 April)

Date Brightness Start Highest point End Pass type
(mag) Time Alt. Az. Time Alt. Az. Time Alt. Az.
30 Apr 3.7 03:12:46 29° N 03:12:46 29° N 03:15:19 10° NE visible
30 Apr 4.0 04:47:21 10° NW 04:50:27 25° N 04:53:33 10° ENE visible
01 May 4.1 02:41:52 23° NNE 02:41:52 23° NNE 02:43:39 10° NE visible
01 May 4.0 04:15:47 11° NW 04:18:42 24° N 04:21:47 10° ENE visible
01 May 3.0 05:53:33 10° NW 05:57:06 44° NNE 06:00:39 10° E visible
02 May 4.4 02:10:54 17° NE 02:10:54 17° NE 02:11:58 10° NE visible
02 May 4.0 03:44:50 15° NW 03:46:57 24° N 03:50:01 10° ENE visible
02 May 3.2 05:21:53 10° NW 05:25:23 39° NNE 05:28:52 10° E visible
03 May 4.7 01:39:52 13° NE 01:39:52 13° NE 01:40:17 10° NE visible
03 May 4.1 03:13:47 19° NW 03:15:09 24° N 03:18:14 10° NE visible
03 May 3.4 04:50:12 10° NW 04:53:37 36° NNE 04:57:03 10° E visible
04 May 4.0 02:42:35 23° NNW 02:43:22 24° N 02:46:27 10° NE visible
04 May 3.6 04:18:30 10° NW 04:21:51 33° NNE 04:25:14 10° E visible
04 May 1.8 05:56:10 10° WNW 05:59:50 65° SW 06:03:28 10° SE visible
04 May 4.1 22:52:34 10° SSW 22:52:52 12° SSW 22:52:52 12° SSW visible
05 May 4.0 02:10:54 24° NNW 02:11:34 25° N 02:14:40 10° NE visible
05 May 3.7 03:46:46 10° NW 03:50:04 31° NNE 03:53:23 10° E visible
05 May 1.7 05:24:26 10° WNW 05:28:06 78° SW 05:31:47 10° SE visible
05 May 2.9 22:21:06 10° S 22:24:00 23° SE 22:26:56 10° E visible
05 May 2.2 23:57:53 10° WSW 00:01:30 62° NNW 00:05:08 10° NE visible
06 May 4.0 01:36:38 10° WNW 01:39:45 26° N 01:42:53 10° NE visible
06 May 3.8 03:15:01 10° NW 03:18:16 29° NNE 03:21:31 10° ENE visible
06 May 1.7 04:52:41 10° WNW 04:56:22 89° N 05:00:03 10° ESE visible
06 May 3.2 21:49:41 10° S 21:52:20 19° SE 21:54:59 10° E visible
06 May 2.0 23:26:06 10° WSW 23:29:43 72° NNW 23:33:23 10° NE visible
07 May 3.9 01:04:46 10° WNW 01:07:56 27° N 01:11:06 10° NE visible
07 May 3.9 02:43:15 10° NW 02:46:27 27° N 02:49:38 10° ENE visible
07 May 1.8 04:20:56 10° NW 04:24:36 77° NNE 04:28:17 10° ESE visible
07 May 3.3 05:59:25 10° W 06:01:58 18° SW 06:04:30 10° S visible
07 May 1.8 22:54:18 10° WSW 22:57:57 83° NNW 23:01:37 10° ENE visible
08 May 3.9 00:32:52 10° WNW 00:36:05 28° NNW 00:39:18 10° NE visible
08 May 4.0 02:11:27 10° NW 02:14:36 26° N 02:17:45 10° ENE visible
08 May 2.1 03:49:10 10° NW 03:52:49 66° NNE 03:56:29 10° ESE visible
08 May 3.0 05:27:25 10° W 05:30:16 21° SW 05:33:07 10° S visible
08 May 1.7 22:22:32 10° SW 22:26:10 84° SSE 22:29:50 10° ENE visible
09 May 3.8 00:00:58 10° WNW 00:04:13 30° NNW 00:07:30 10° NE visible
09 May 4.0 01:39:37 10° NW 01:42:43 25° N 01:44:58 15° NE visible
09 May 3.8 03:17:23 10° NW 03:18:49 22° NW 03:18:49 22° NW visible
09 May 1.7 21:50:46 10° SW 21:54:22 71° SE 21:58:01 10° ENE visible
09 May 3.6 23:29:03 10° W 23:32:22 32° NNW 23:35:41 10° NE visible
